Torna al catalogo

CZ-6A DEB

AttivoSSO
NORAD 54416·DEBRIS·🇨🇳 China

Lanciato Nov 11, 2022 da Taiyuan Satellite Launch Center

Loading…

Prossimi Passaggi (prossime 24 ore)

TLE

AggiornatoSource: Space-Track

Epoca: Sep 14, 2026, 07:04 UTC

1 54416U 22151EQ  26257.29488005  .00000383  00000-0  34658-3 0  9992
2 54416  98.9364 199.9548 0174602 267.7557  90.3598 13.83007261193463

Traccia CZ-6A DEB in tempo reale con AllMySat

Download on the App Store